Regional Weather Roundup
Issued by NWS

Home | Current Version | Previous Version | Text Only | Print | Product List | Glossary Off
Versions: 1 2 3 4 5 6 7 8 9 10 11 12 13 14 15 16 17 18 19 20 21 22 23 24 25 26 27 28 29 30 31 32 33 34 35 36 37 38 39 40 41 42 43 44 45 46 47 48 49 50

747
ASUS45 KTFX 020210
RWRMT
MONTANA REGIONAL WEATHER ROUNDUP
NATIONAL WEATHER SERVICE GREAT FALLS MT
800 PM MDT SUN MAY 01 2016

NOTE: "FAIR" INDICATES FEW OR NO CLOUDS BELOW 12000 FEET WITH NO
SIGNIFICANT WEATHER AND/OR OBSTRUCTIONS TO VISIBILITY.

MTZ001>007-043-020300-
WEST OF THE DIVIDE

CITY           SKY/WX    TMP DP  RH WIND       PRES   REMARKS
KALISPELL      CLEAR     68  37  32 W3        30.09F
MISSOULA       CLEAR     64  39  39 N13G20    30.10S
BUTTE          CLEAR     55  23  28 SE9       30.17S
MULLAN PASS    CLEAR     50  30  46 CALM      30.18S
ANACONDA         N/A     55  30  38 N7        30.15R
DEER LODGE       N/A     57  30  35 N8        30.16R
EUREKA           N/A     70  34  26 CALM      30.10S
HAMILTON         N/A     64  37  36 N7        30.09S
LIBBY            N/A     72  36  26 W3        30.08S
PLAINS           N/A     69  41  36 CALM      30.10S
THOMPSON FALLS   N/A     68  37  31 NE7       30.11
$$

MTZ008-052>055-020300-
SOUTHWEST MONTANA

CITY           SKY/WX    TMP DP  RH WIND       PRES   REMARKS
BOZEMAN        CLEAR     55  29  36 E12       30.16R
DILLON         CLEAR     57  28  33 NE8       30.13F
ENNIS          CLEAR     55  30  38 N17G24    30.19S
TWIN BRIDGES     N/A     59  25  27 NW14      30.11S
$$

MTZ009-010-012-014-046-048-049-054-020300-
EAST SLOPES AND CENTRAL MONTANA

CITY           SKY/WX    TMP DP  RH WIND       PRES   REMARKS
CUT BANK       CLEAR     58  35  42 SE6       30.18F
GREAT FALLS    CLEAR     58  34  40 NE7       30.18S
HELENA         CLEAR     62  35  36 N10       30.14F
CHOTEAU          N/A     57  32  38 SE3       30.20S
CONRAD           N/A     60  35  39 E3        30.20S
$$

MTZ011-013-016-021-045-047-050-051-020300-
NORTH CENTRAL MONTANA

CITY           SKY/WX    TMP DP  RH WIND       PRES   REMARKS
HAVRE          CLEAR     63  33  32 CALM      30.17F
LEWISTOWN      CLEAR     55  33  43 E7        30.20S
N BAR RANCH      N/A     50  32  50 E6        30.24S
CHINOOK          N/A     64  34  32 CALM      30.16F
$$

MTZ017>020-022>027-061-062-020300-
NORTHEAST MONTANA

CITY           SKY/WX    TMP DP  RH WIND       PRES   REMARKS
GLASGOW        PTCLDY    60  34  37 NW5       30.17S
JORDAN           N/A     60  31  33 CALM      30.19F
SIDNEY         CLEAR     55  34  44 W6        30.16F
WOLF POINT     PTCLDY    61  33  35 SW8       30.15F
PLENTYWOOD       N/A     63  30  29 NW6       30.11F
POPLAR           N/A     63  32  31 SW8       30.15F
SCOBEY           N/A     62  30  30 W8        30.11F
$$

MTZ028>42-056>058-020300-
SOUTHCENTRAL AND SOUTHEAST MONTANA

CITY           SKY/WX    TMP DP  RH WIND       PRES   REMARKS
BAKER          CLEAR     53  34  48 W8        30.20F
BILLINGS       PTCLDY    56  31  38 NE8       30.21S
LIVINGSTON     CLEAR     53  28  38 E16       30.19R
MILES CITY     CLEAR     57  35  43 S5        30.20F
EKALAKA          N/A     51  30  44 W3        30.18S
FORSYTH          N/A     59  34  38 E3        30.20F
LAUREL           N/A     56  29  35 CALM      30.18
ROUNDUP          N/A     57  31  37 CALM      30.11S
$$

REGIONAL REPORTS...DAKOTAS

CITY           SKY/WX    TMP DP  RH WIND       PRES   REMARKS
WILLISTON      CLOUDY    57  33  40 SW5       30.13F
MINOT          CLEAR     59  23  25 CALM      30.12F
DICKINSON      CLEAR     54  28  36 N6        30.15S
BEACH            N/A     54  27  35 N6        30.21S
CROSBY         MOCLDY    55  28  35 SW9       30.11F
WATFORD CITY     N/A     55  32  41 SW5       30.15F
BISMARCK       CLEAR     59  29  31 CALM      30.16F
GRAND FORKS    PTCLDY    55  27  34 W5        30.12F
FARGO          CLEAR     59  26  28 NE3       30.12S
BUFFALO SD       N/A     54  31  41 NW9       30.14S
RAPID CITY     CLEAR     45  32  60 N6        30.21S
$$

REGIONAL REPORTS...WYOMING/IDAHO/WASHINGTON

CITY           SKY/WX    TMP DP  RH WIND       PRES   REMARKS
GILLETTE       CLEAR     47  33  58 N5        30.22S
SHERIDAN       CLEAR     53  32  44 NE5       30.21R
BUFFALO WY       N/A    N/A N/A N/A MISG      30.24R
CODY           CLOUDY    52  25  35 E8        30.20S
YELLOWSTONE LA   N/A     37  22  54 CALM      30.24F
IDAHO FALLS    CLEAR     62  22  21 N3        30.08S
SALMON         CLEAR     63  34  34 NW6       30.06S
BOISE          PTCLDY    68  40  35 NW10      30.01S
SPOKANE        PTCLDY    71  35  26 NE8       30.05F
$$

REGIONAL REPORTS...ALBERTA

CITY           SKY/WX    TMP DP  RH WIND       PRES   REMARKS
EDMONTON       PTCLDY    73  39  29 W7        30.04F
CALGARY        PTCLDY    63  27  25 E7        30.14S
LETHBRIDGE     MOCLDY    63  37  39 SE7       30.13F
MEDICINE HAT   CLOUDY    63  39  42 SW6       30.12F
WATERTON GATE    N/A     61  32  33 E6          N/A
CARDSTON         N/A     63  28  27 SE2         N/A
MILK RIVER       N/A     59  36  41 S8          N/A
$$

REGIONAL REPORTS...SASKATCHEWAN

CITY           SKY/WX    TMP DP  RH WIND       PRES   REMARKS
SWIFT CURRENT  CLEAR     61  36  39 W12       30.11F
REGINA         MOCLDY    63  34  34 NW8       30.08R
SASKATOON      MOCLDY    63  32  31 NW6       30.04F
VAL MARIE        N/A     61  30  31 W7          N/A
ROCKGLEN         N/A     57  30  35 W7          N/A
$$




USA.gov is the U.S. government's official web portal to all federal, state and local government web resources and services.